Location: Unspecified
(43.8044°N, 11.0278°E)
Time: 10:52:44
(UTC+02:00)

Cosmos 2058 - Visible Passes

Search period start: 24 June 2017 00:00
Search period end: 04 July 2017 00:00
Orbit: 565 x 584 km, 82.5° (Epoch: 23 June)

Date Brightness Start Highest point End Pass type
(mag) Time Alt. Az. Time Alt. Az. Time Alt. Az.
24 Jun 5.0 22:14:03 11° ESE 22:15:34 12° E 22:17:21 10° ENE visible
24 Jun 3.4 23:50:15 32° SW 23:51:58 56° W 23:56:08 10° N visible
25 Jun 4.7 22:17:05 13° ESE 22:18:48 16° E 22:21:28 10° NE visible
25 Jun 4.0 23:53:17 24° SW 23:55:22 41° WNW 23:59:24 10° N visible
26 Jun 4.4 22:20:05 16° ESE 22:22:04 21° E 22:25:16 10° NE visible
26 Jun 4.5 23:56:17 17° SW 23:58:48 32° WNW 00:02:36 10° N visible
27 Jun 4.0 22:23:04 17° SE 22:25:20 28° E 22:28:57 10° NNE visible
27 Jun 4.9 23:59:16 12° SW 00:02:14 25° WNW 00:05:44 10° NNW visible
28 Jun 3.6 22:26:01 18° SSE 22:28:38 36° E 22:32:31 10° NNE visible
29 Jun 5.3 00:02:40 10° WSW 00:05:43 19° WNW 00:08:46 10° NNW visible
29 Jun 3.2 22:28:55 17° SSE 22:31:57 49° E 22:36:02 10° NNE visible
30 Jun 5.6 00:06:45 10° WSW 00:09:12 15° WNW 00:11:40 10° NNW visible
30 Jun 2.9 22:31:46 14° S 22:35:17 66° E 22:39:29 10° NNE visible
01 Jul 5.8 00:11:14 10° W 00:12:42 12° WNW 00:14:11 10° NW visible
01 Jul 2.9 22:34:35 11° S 22:38:37 88° E 22:42:52 10° N visible
02 Jul 3.2 22:37:48 10° SSW 22:42:00 69° W 22:46:13 10° N visible
03 Jul 3.7 22:41:17 10° SSW 22:45:23 51° WNW 22:49:31 10° N visible
